[[{"header":{"parameterUnit":"m.s-1","parameterCategory":1,"la1":30.2991,"la2":30.254,"lo1":-89.0895,"lo2":-89.0444,"dy":0.0017,"dx":0.0017,"nx":28,"ny":28,"refTime":"2024-08-28T21:00:00:Z","depth":0,"parameterNumber":2,"parameterNumberName":"U-component_of_WINDS"},"data":[0,0,0,0,0,0,0,0,0,0,0,0,0,0,0,0,0,0,0,0,0,0,0,0,0,0,0,0,0,0,0,0,0,0,0,0,0,0,0,0,0,0,0,0,0,0,0,0,0,0,0,0,0,0,0,0,0,0,-2.6205,-2.6206,0,-2.6249,-2.625,-2.625,-2.6235,-2.6234,-2.6233,-2.6232,-2.6276,-2.6278,-2.628,0,0,0,0,0,0,0,0,0,0,0,0,0,-2.6105,-2.6107,-2.6205,-2.6206,-2.6206,-2.6249,-2.625,-2.6251,-2.6235,-2.6234,-2.6233,-2.6232,-2.6275,-2.6278,-2.628,0,0,0,0,0,0,0,0,0,0,0,0,0,-2.6149,-2.6108,-2.6205,-2.6204,-2.6204,-2.6249,-2.625,-2.6251,-2.6235,-2.6234,-2.6233,-2.6231,-2.6275,-2.6278,-2.6281,-2.6329,0,0,-2.629,-2.6291,0,0,0,0,0,0,0,0,-2.6146,-2.6152,-2.6203,-2.6204,-2.6204,-2.6235,-2.6231,-2.6277,-2.6236,-2.6224,-2.6232,-2.623,-2.6264,-2.6267,-2.6279,-2.6331,-2.6333,-2.629,-2.6292,-2.6294,-2.6295,0,0,0,0,0,0,0,-2.6143,-2.615,-2.6223,-2.6204,-2.6205,-2.62,-2.6205,-2.6239,-2.6251,-2.6224,-2.6223,-2.6229,-2.6263,-2.6276,-2.628,-2.6334,-2.629,-2.6293,-2.6295,-2.6296,-2.6426,-2.6428,0,0,0,0,0,0,-2.614,-2.6148,-2.6221,-2.6224,-2.6171,-2.6203,-2.6208,-2.6227,-2.6251,-2.6253,-2.623,-2.6228,-2.6271,-2.6276,-2.6281,-2.6338,-2.6294,-2.6297,-2.6298,-2.6424,-2.6426,-2.6428,0,0,0,0,0,0,-2.6138,-2.6147,-2.6219,-2.6186,-2.6195,-2.6207,-2.6227,-2.6228,-2.6241,-2.6255,-2.6257,-2.6241,-2.627,-2.6277,-2.6317,-2.6339,-2.6298,-2.6301,-2.6423,-2.6425,-2.6427,-2.6453,0,0,0,0,0,0,-2.6135,-2.6146,-2.6165,-2.6186,-2.6197,-2.6255,-2.6229,-2.623,-2.6246,-2.6244,-2.6266,-2.6268,-2.627,-2.6312,-2.632,-2.6343,-2.6303,-2.6421,-2.6424,-2.6426,-2.645,-2.6456,-2.6461,0,0,0,0,0,-2.6132,-2.6171,-2.6166,-2.6175,-2.6221,-2.6256,-2.6262,-2.6264,-2.6248,-2.6267,-2.6276,-2.6267,-2.6336,-2.6317,-2.6325,-2.6349,-2.6419,-2.6423,-2.6426,-2.6447,-2.6454,-2.646,0,0,0,0,0,0,-2.6152,-2.6174,-2.6169,-2.6216,-2.6235,-2.6254,-2.6277,-2.6272,-2.6295,-2.6292,-2.6293,-2.6298,-2.6338,-2.6348,-2.6326,-2.6397,-2.6375,-2.6381,-2.6388,-2.6395,-2.64,-2.6396,-2.6306,0,0,0,0,0,-2.6162,-2.619,-2.6207,-2.6247,-2.6256,-2.6266,-2.6281,-2.6281,-2.63,-2.6308,-2.632,-2.6338,-2.6363,-2.638,-2.6405,-2.6452,-2.6455,-2.6473,-2.6478,-2.6482,-2.6486,-2.651,-2.6517,-2.644,-2.644,-2.644,0,0,-2.6183,-2.6198,-2.6215,-2.6251,-2.6266,-2.6293,-2.6272,-2.6303,-2.6323,-2.6312,-2.635,-2.636,-2.638,-2.6423,-2.6443,-2.6433,-2.6509,-2.6487,-2.649,-2.6492,-2.6514,-2.6522,-2.6528,-2.6442,-2.6442,-2.6441,0,0,-2.6234,-2.625,-2.6283,-2.6298,-2.632,-2.6326,-2.6334,-2.6354,-2.636,-2.6398,-2.639,-2.6414,-2.6459,-2.6473,-2.6486,-2.6542,-2.6534,-2.6551,-2.6578,-2.6601,-2.6607,-2.6612,-2.663,-2.6637,-2.6555,-2.6555,-2.6555,0,-2.6257,-2.6299,-2.6301,-2.6332,-2.6347,-2.634,-2.6373,-2.6387,-2.6416,-2.6426,-2.6415,-2.6469,-2.6483,-2.6528,-2.6542,-2.6554,-2.6562,-2.6547,-2.6606,-2.6611,-2.6616,-2.6633,-2.664,-2.6557,-2.6556,-2.6556,-2.6556,0,-2.6325,-2.6354,-2.6378,-2.6406,-2.6424,-2.6457,-2.6463,-2.6481,-2.648,-2.6486,-2.6525,-2.654,-2.6567,-2.6578,-2.6577,-2.6624,-2.6616,-2.6606,-2.6583,-2.6625,-2.6641,-2.6648,-2.6559,-2.6558,-2.6558,-2.6558,0,0,-2.6389,-2.6418,-2.6426,-2.6438,-2.6461,-2.6484,-2.6515,-2.6541,-2.6556,-2.6576,-2.6601,-2.6639,-2.6629,-2.6644,-2.6644,-2.6665,-2.6706,-2.6651,-2.6652,-2.6659,-2.6755,-2.6762,-2.6769,-2.6702,-2.6703,-2.6704,-2.6753,0,-2.6441,-2.6496,-2.6499,-2.6548,-2.6574,-2.6567,-2.6594,-2.661,-2.6618,-2.664,-2.6648,-2.6674,-2.6659,-2.6668,-2.6688,-2.6697,-2.6725,-2.6693,-2.6723,-2.6724,-2.6716,-2.6778,-2.6785,-2.6831,-2.6759,-2.676,-2.6761,0,-2.6508,-2.653,-2.6582,-2.66,-2.6611,-2.6635,-2.6659,-2.6681,-2.67,-2.6703,-2.672,-2.6717,-2.6748,-2.6727,-2.6768,-2.6747,-2.6759,-2.6765,-2.6767,-2.6768,-2.6744,-2.6779,-2.6845,-2.6851,-2.6772,-2.6771,-2.677,0,-2.6547,-2.659,-2.6626,-2.6636,-2.6659,-2.6676,-2.6686,-2.6704,-2.6719,-2.674,-2.6749,-2.6773,-2.6786,-2.6805,-2.6808,-2.6793,-2.6849,-2.6829,-2.6851,-2.6851,-2.6862,-2.6861,-2.6929,-2.6874,-2.6874,-2.6874,-2.6873,0,-2.6603,-2.6635,-2.6643,-2.6665,-2.67,-2.6703,-2.6737,-2.6746,-2.6761,-2.6784,-2.678,-2.6802,-2.6806,-2.6828,-2.6831,-2.6864,-2.6871,-2.6873,-2.6873,-2.6872,-2.6872,-2.6879,-2.6875,-2.6875,-2.6875,-2.6875,-2.6874,0,-2.6652,-2.6659,-2.6698,-2.6716,-2.6721,-2.6746,-2.6761,-2.6782,-2.6789,-2.6818,-2.6824,-2.6835,-2.686,-2.6866,-2.6897,-2.6899,-2.6937,-2.6936,-2.6931,-2.693,-2.6952,-2.6949,-2.7026,-2.7035,-2.6975,-2.6976,-2.6976,0,-2.6686,-2.671,-2.6731,-2.6746,-2.6757,-2.6782,-2.6797,-2.6801,-2.6817,-2.6839,-2.6856,-2.6882,-2.6902,-2.6943,-2.6953,-2.6976,-2.6973,-2.6999,-2.6977,-2.6975,-2.6971,-2.6969,-2.697,-2.7002,-2.7003,-2.7003,-2.7004,0,-2.6745,-2.6748,-2.677,-2.6793,-2.6812,-2.6831,-2.6848,-2.6861,-2.6867,-2.6885,-2.6911,-2.6927,-2.6958,-2.6982,-2.7006,-2.7015,-2.701,-2.7011,-2.7017,-2.7015,-2.7011,-2.7011,-2.694,-2.7009,-2.7008,-2.7008,-2.7008,-2.7007,-2.6787,-2.6807,-2.6824,-2.6849,-2.6863,-2.6879,-2.6899,-2.6908,-2.693,-2.6955,-2.6956,-2.6984,-2.7001,-2.7031,-2.7043,-2.7064,-2.7056,-2.7066,-2.7068,-2.7069,-2.707,-2.7009,-2.7069,-2.7069,-2.7068,-2.7068,-2.7068,0,-2.6844,-2.6855,-2.6877,-2.6902,-2.6921,-2.6915,-2.6934,-2.695,-2.6975,-2.6992,-2.7011,-2.7041,-2.7064,-2.7076,-2.7099,-2.7114,-2.7112,-2.712,-2.7117,-2.7119,-2.7077,-2.7068,-2.7121,-2.7121,-2.7121,-2.7121,-2.7121,-2.7121,-2.6876,-2.6909,-2.6913,-2.6953,-2.6963,-2.699,-2.7002,-2.7016,-2.7029,-2.7062,-2.7081,-2.7089,-2.7103,-2.7127,-2.7148,-2.7151,-2.7159,-2.7167,-2.7168,-2.7128,-2.7123,-2.7117,-2.7109,-2.7169,-2.7169,-2.7209,-2.7209,-2.7209]},{"header":{"parameterUnit":"m.s-1","parameterCategory":1,"la1":30.2991,"la2":30.254,"lo1":-89.0895,"lo2":-89.0444,"dy":0.0017,"dx":0.0017,"nx":28,"ny":28,"refTime":"2024-08-28T21:00:00:Z","depth":0,"parameterNumber":3,"parameterNumberName":"V-component_of_WINDS"},"data":[0,0,0,0,0,0,0,0,0,0,0,0,0,0,0,0,0,0,0,0,0,0,0,0,0,0,0,0,0,0,0,0,0,0,0,0,0,0,0,0,0,0,0,0,0,0,0,0,0,0,0,0,0,0,0,0,0,0,2.7022,2.7022,0,2.7071,2.7071,2.7072,2.701,2.7008,2.7006,2.7004,2.7051,2.7054,2.7058,0,0,0,0,0,0,0,0,0,0,0,0,0,2.6872,2.6875,2.7022,2.7022,2.7023,2.7071,2.7071,2.7072,2.7011,2.7008,2.7005,2.7003,2.705,2.7054,2.7058,0,0,0,0,0,0,0,0,0,0,0,0,0,2.6931,2.6876,2.7022,2.6998,2.6997,2.707,2.7071,2.7072,2.7011,2.7008,2.7005,2.7001,2.7049,2.7054,2.7058,2.7157,0,0,2.7074,2.7076,0,0,0,0,0,0,0,0,2.6927,2.6936,2.7001,2.7,2.6998,2.7031,2.7036,2.71,2.7012,2.7006,2.7004,2.7,2.7047,2.7052,2.7068,2.7159,2.7161,2.7074,2.7077,2.7079,2.7081,0,0,0,0,0,0,0,2.6923,2.6934,2.7041,2.7002,2.7,2.6984,2.6989,2.7048,2.7044,2.7006,2.7002,2.7008,2.7045,2.7064,2.7069,2.7162,2.7074,2.7079,2.7082,2.7084,2.7334,2.7338,0,0,0,0,0,0,2.6922,2.6931,2.7039,2.7042,2.6954,2.699,2.6995,2.7024,2.7044,2.7044,2.7011,2.7005,2.7057,2.7063,2.707,2.7186,2.7079,2.7084,2.7087,2.733,2.7335,2.7339,0,0,0,0,0,0,2.692,2.6933,2.7037,2.6985,2.6998,2.6996,2.7029,2.7027,2.7045,2.7048,2.7046,2.7031,2.7054,2.7063,2.7136,2.7187,2.7086,2.7091,2.7326,2.7332,2.7337,2.7418,0,0,0,0,0,0,2.6915,2.6932,2.697,2.6987,2.7001,2.7103,2.7032,2.703,2.7054,2.7047,2.7066,2.7065,2.7052,2.7129,2.7141,2.7192,2.7095,2.7322,2.7329,2.7335,2.7411,2.7426,2.7439,0,0,0,0,0,2.691,2.6991,2.6972,2.6986,2.7048,2.7106,2.7114,2.7098,2.7058,2.7096,2.7098,2.7065,2.7179,2.7136,2.715,2.7203,2.7318,2.7327,2.7335,2.7405,2.7423,2.7438,0,0,0,0,0,0,2.6979,2.6993,2.6972,2.7061,2.7083,2.7096,2.7143,2.7118,2.7151,2.7143,2.7121,2.7126,2.7203,2.721,2.7162,2.7299,2.7242,2.7253,2.7291,2.7308,2.7322,2.7318,2.7099,0,0,0,0,0,2.7005,2.7052,2.706,2.7138,2.715,2.7145,2.7169,2.7155,2.7177,2.7186,2.7193,2.7214,2.7255,2.7282,2.732,2.7412,2.7415,2.7455,2.7469,2.748,2.749,2.7539,2.7556,2.7366,2.7366,2.7365,0,0,2.7058,2.7071,2.7102,2.7152,2.7167,2.7215,2.7153,2.7206,2.7241,2.7193,2.7262,2.7268,2.7291,2.7373,2.741,2.7382,2.7543,2.7491,2.75,2.7503,2.7549,2.7567,2.7583,2.7371,2.737,2.7369,0,0,2.7179,2.7194,2.726,2.7277,2.7301,2.7297,2.7313,2.733,2.7332,2.7401,2.7366,2.7407,2.7478,2.7495,2.7513,2.7641,2.7611,2.7653,2.7725,2.7773,2.7788,2.7801,2.7846,2.7862,2.7663,2.7664,2.7664,0,2.7242,2.7314,2.7296,2.7353,2.7375,2.7335,2.74,2.7417,2.7453,2.7469,2.7437,2.7524,2.7537,2.7622,2.7654,2.767,2.7686,2.7651,2.7787,2.78,2.7812,2.7855,2.7872,2.7668,2.7668,2.7667,2.7667,0,2.7389,2.7439,2.7489,2.7525,2.7553,2.7614,2.7605,2.7635,2.7619,2.7618,2.7688,2.7701,2.7741,2.776,2.7744,2.7843,2.7825,2.7791,2.7733,2.7836,2.7875,2.7891,2.7675,2.7674,2.7672,2.7671,0,0,2.7555,2.7581,2.7599,2.7615,2.7639,2.7677,2.7735,2.7774,2.78,2.7826,2.7874,2.7934,2.7903,2.7923,2.7909,2.7951,2.805,2.7911,2.7911,2.7936,2.8159,2.8184,2.8204,2.8031,2.8034,2.8036,2.8157,0,2.7676,2.7778,2.7764,2.7861,2.7907,2.7869,2.7919,2.7939,2.794,2.7978,2.7978,2.8021,2.7976,2.7988,2.8028,2.803,2.8094,2.8021,2.8074,2.8076,2.8069,2.8224,2.8251,2.8364,2.8172,2.8175,2.8177,0,2.783,2.7862,2.7965,2.7981,2.8,2.8046,2.808,2.8117,2.8138,2.8136,2.8159,2.8137,2.8194,2.8136,2.8214,2.8164,2.8185,2.8189,2.8193,2.8197,2.8132,2.8231,2.84,2.8417,2.8201,2.8199,2.8197,0,2.794,2.8009,2.8078,2.8093,2.8114,2.8147,2.8157,2.8175,2.82,2.8229,2.8245,2.8281,2.83,2.8328,2.8316,2.8276,2.8396,2.8337,2.8394,2.8395,2.8421,2.8419,2.8595,2.8436,2.8436,2.8435,2.8435,0,2.8076,2.814,2.8128,2.8171,2.8241,2.8224,2.8293,2.8299,2.8315,2.8357,2.8327,2.8367,2.8349,2.8388,2.8379,2.8444,2.8453,2.8452,2.8448,2.8454,2.8454,2.8467,2.8459,2.844,2.8439,2.8438,2.8437,0,2.821,2.8205,2.8279,2.8293,2.8298,2.8349,2.836,2.84,2.8398,2.8452,2.8464,2.8461,2.8505,2.8496,2.8544,2.8538,2.862,2.8607,2.8613,2.8609,2.8667,2.8661,2.8856,2.888,2.8706,2.8708,2.8709,0,2.8297,2.8345,2.8365,2.8392,2.8404,2.8448,2.8473,2.8457,2.8484,2.8512,2.8548,2.8589,2.8622,2.8694,2.8695,2.8732,2.8719,2.8785,2.8724,2.8728,2.8719,2.8716,2.872,2.8796,2.8798,2.88,2.8801,0,2.8451,2.8446,2.8484,2.8521,2.8552,2.8579,2.8604,2.8628,2.8614,2.8646,2.8691,2.8716,2.8766,2.8807,2.8841,2.8849,2.8823,2.882,2.8835,2.8842,2.8843,2.8842,2.8645,2.8816,2.8814,2.8813,2.8813,2.8812,2.8564,2.8605,2.8625,2.8668,2.8685,2.8709,2.8747,2.875,2.8788,2.8827,2.8816,2.8867,2.8885,2.8928,2.8942,2.898,2.8956,2.8978,2.8983,2.8989,2.8995,2.8837,2.8987,2.8986,2.8986,2.8985,2.8985,0,2.8716,2.8728,2.8767,2.8803,2.8836,2.8809,2.8835,2.8865,2.891,2.8931,2.8963,2.9015,2.9054,2.9059,2.9096,2.9127,2.9115,2.9137,2.9134,2.9136,2.9016,2.8999,2.9145,2.9145,2.9145,2.9145,2.9145,2.9145,2.88,2.8867,2.8865,2.894,2.895,2.9001,2.9018,2.9039,2.9055,2.9114,2.9147,2.9151,2.9164,2.9202,2.9237,2.9237,2.9252,2.9278,2.9274,2.9161,2.9145,2.913,2.9114,2.9282,2.9282,2.9391,2.9392,2.9393]}]]